Location: ???????
(55.3754°N, 39.3545°E)
Time: 06:15:59
(UTC+00:00)

Cosmos 1818 - Pass Details

Date: 14 April 2026
Orbit: 774 x 797 km, 65.0° (Epoch: 10 May)

Event Time Altitude Azimuth Distance (km) Brightness Sun altitude
Rises 20:24:57 0° 310° (NW) 3,308 7.6 -23.9°
Reaches altitude 10° 20:27:26 10° 314° (NW) 2,378 6.8 -24.0°
Maximum altitude 20:32:49 57° 33° (NNE) 943 4.1 -24.1°
Enters shadow 20:35:11 32° 97° (E) 1,342 4.5 -24.2°
